FW6247 Weather Reports


Display with metric or nautical units.
time (UTC)temp
F
wind
direction
speed
MPH
gust
MPH
rain 1hr
in
rain 24hr
in
rain mn
in
humidity
%
barometer
mb
20260505070112 56 277 0.0 3.0 0.00 0.00 0.00 76 1011.6
20260505063037 57 182 3.0 5.0 0.00 0.00 0.00 72 1011.6
20260505061533 58 189 2.0 4.0 0.00 0.00 0.00 70 1011.6
20260505060035 59 176 1.0 3.0 0.00 0.00 0.00 68 1011.6
20260505054536 59 163 1.0 4.0 0.00 0.00 0.00 66 1011.5
20260505053031 60 221 1.0 4.0 0.00 0.00 0.00 63 1011.3
20260505041531 65 232 1.0 6.0 0.00 0.00 0.00 54 1010.8
20260505040048 65 258 2.0 7.0 0.00 0.00 0.00 53 1010.6
20260505034536 65 265 2.0 6.0 0.00 0.00 0.00 53 1010.4
20260505031534 68 264 2.0 7.0 0.00 0.00 0.00 47 1010.1
20260505024534 72 264 5.0 13.0 0.00 0.00 0.00 42 1009.7
20260505023037 73 279 7.0 14.0 0.00 0.00 0.00 41 1009.6
20260505021531 75 287 7.0 15.0 0.00 0.00 0.00 39 1009.5
20260505020029 76 284 8.0 20.0 0.00 0.00 0.00 37 1009.4
20260505014532 77 281 8.0 17.0 0.00 0.00 0.00 36 1009.5
20260505013030 78 282 9.0 21.0 0.00 0.00 0.00 35 1009.4
20260505010033 79 287 9.0 19.0 0.00 0.00 0.00 37 1009.3
20260505004529 79 307 3.0 16.0 0.00 0.00 0.00 42 1009.5
20260505003031 80 318 3.0 11.0 0.00 0.00 0.00 41 1009.4
20260505001531 80 330 2.0 8.0 0.00 0.00 0.00 40 1009.5
20260505000031 81 330 2.0 8.0 0.00 0.00 0.00 41 1009.5
20260504234531 81 343 2.0 11.0 0.00 0.00 0.00 40 1009.5
20260504233031 82 347 2.0 8.0 0.00 0.00 0.00 40 1009.6
20260504231530 82 340 2.0 9.0 0.00 0.00 0.00 40 1009.7
20260504223030 81 325 3.0 12.0 0.00 0.00 0.00 38 1010.2
20260504221531 81 327 2.0 9.0 0.00 0.00 0.00 37 1010.3
20260504220029 80 320 2.0 11.0 0.00 0.00 0.00 37 1010.4
20260504213030 80 282 5.0 12.0 0.00 0.00 0.00 34 1010.7
20260504211539 80 312 3.0 9.0 0.00 0.00 0.00 34 1010.8
20260504204530 81 313 2.0 7.0 0.00 0.00 0.00 35 1011.1
20260504203032 81 320 2.0 10.0 0.00 0.00 0.00 35 1011.2
20260504201530 81 308 3.0 11.0 0.00 0.00 0.00 36 1011.3
20260504200038 81 306 4.0 11.0 0.00 0.00 0.00 38 1011.4
20260504194530 81 305 4.0 13.0 0.00 0.00 0.00 39 1011.4
20260504193030 80 317 3.0 14.0 0.00 0.00 0.00 39 1011.5
20260504190031 77 321 2.0 11.0 0.00 0.00 0.00 44 1011.6
20260504184532 75 320 2.0 9.0 0.00 0.00 0.00 45 1011.7
20260504183030 76 325 2.0 9.0 0.00 0.00 0.00 45 1011.8
20260504181530 78 325 1.0 9.0 0.00 0.00 0.00 45 1011.7
20260504180030 77 345 0.0 9.0 0.00 0.00 0.00 46 1011.8
20260504173030 74 327 0.0 4.0 0.00 0.00 0.00 49 1011.8
20260504171603 72 319 1.0 6.0 0.00 0.00 0.00 50 1011.7
20260504160107 67 26 0.0 2.0 0.00 0.00 0.00 57 1012.0
20260504081530 59 166 6.0 9.0 0.00 0.00 0.00 54 1011.7
20260504080107 60 169 6.0 9.0 0.00 0.00 0.00 53 1011.8